Weather History for Bierset, Belgium

Change the Weather History Date:

Sunday, January 15, 2012

  Actual Average Record
Temperature  
Mean Temperature 34 °F -  
Max Temperature 39 °F 40 °F 48 °F (2008)
Min Temperature 28 °F 32 °F 21 °F (2001)
Degree Days  
Heating Degree Days 32    
Moisture  
Dew Point 28 °F    
Average Humidity 80    
Maximum Humidity 93    
Minimum Humidity 59    
Precipitation  
Precipitation 0.00 in - - ()
Sea Level Pressure  
Sea Level Pressure 30.28 in    
Wind  
Wind Speed 4 mph ()    
Max Wind Speed 12 mph    
Max Gust Speed 22 mph    
Visibility 5.1 miles    
Events      
Averages and records for this station are not official NWS values.
T = Trace of Precipitation, MM = Missing Value Source: Averaged Metar Reports

Daily Weather History Graph

Daily Weather History Graph

Search for Another Location

Airport:

Trip Planner

Search our weather history database for the weather conditions in past years. The results will help you decide how hot, cold, wet, or windy it might be!

Date:

Astronomy

Jan. 15, 2012 Rise Set
Actual Time 8:33 AM CET 5:01 PM CET
Civil Twilight 7:56 AM CET 5:38 PM CET
Nautical Twilight 7:15 AM CET 6:19 PM CET
Astronomical Twilight 6:36 AM CET 6:59 PM CET
Moon No Moon Rise 10:53 AM CET (1/15)
Length of Visible Light 9h 42m
Length of Day
8h 27m
Waning Gibbous, 61% of the Moon is Illuminated
Jan 15
Waning Gibbous
Jan 16
Last Quarter
Jan 23
New
Jan 31
First Quarter
Feb 7
Full

Hourly Weather History & Observations

Time (CET) Temp. Windchill Dew Point Humidity Pressure Visibility Wind Dir Wind Speed Gust Speed Precip Events Conditions
12:20 AM 33.8 °F - 30.2 °F 87% 30.30 in 6.2 mi NE 2.3 mph - N/A   Scattered Clouds
12:50 AM 32.0 °F - 28.4 °F 87% 30.30 in 6.2 mi South 1.2 mph - N/A   Partly Cloudy
1:00 AM 33 °F - 29 °F 80% 30.36 in 6 mi South 2.2 mph - -   Scattered Clouds
1:20 AM 32.0 °F - 28.4 °F 87% 30.30 in 5.0 mi Variable 1.2 mph - N/A   Partly Cloudy
1:50 AM 33.8 °F - 28.4 °F 81% 30.30 in 5.0 mi ESE 1.2 mph - N/A   Partly Cloudy
2:20 AM 32.0 °F - 28.4 °F 87% 30.30 in 5.0 mi Variable 2.3 mph - N/A   Unknown
2:50 AM 32.0 °F - 28.4 °F 87% 30.30 in 4.3 mi SE 1.2 mph - N/A   Unknown
3:20 AM 30.2 °F - 28.4 °F 93% 30.30 in 4.3 mi Variable 1.2 mph - N/A   Unknown
3:50 AM 30.2 °F 26.7 °F 28.4 °F 93% 30.30 in 3.7 mi SE 3.5 mph - N/A   Unknown
4:00 AM 30 °F - 28 °F 88% 30.35 in 4 mi SE 2.2 mph - -   Clear
4:20 AM 30.2 °F 26.7 °F 28.4 °F 93% 30.30 in - ESE 3.5 mph - N/A   Mist
4:50 AM 30.2 °F 25.4 °F 28.4 °F 93% 30.30 in - SE 4.6 mph - N/A   Mist
5:20 AM 30.2 °F 24.3 °F 26.6 °F 86% 30.27 in 2.8 mi Variable 5.8 mph 21.9 mph N/A   Mist
5:50 AM 30.2 °F 25.4 °F 26.6 °F 86% 30.30 in 2.8 mi SE 4.6 mph - N/A   Mist
6:20 AM 30.2 °F 26.7 °F 26.6 °F 86% 30.30 in 3.7 mi SE 3.5 mph - N/A   Unknown
6:50 AM 30.2 °F - 26.6 °F 86% 30.30 in 3.7 mi Calm Calm - N/A   Unknown
7:00 AM 30 °F - 27 °F 83% 30.34 in 4 mi Calm Calm - -   Clear
7:20 AM 30.2 °F - 26.6 °F 86% 30.30 in 4.3 mi SE 2.3 mph - N/A   Unknown
7:50 AM 28.4 °F 24.6 °F 26.6 °F 93% 30.30 in 4.3 mi ESE 3.5 mph - N/A   Unknown
8:20 AM 28.4 °F 23.3 °F 26.6 °F 93% 30.30 in 4.3 mi ESE 4.6 mph - N/A   Unknown
8:50 AM 28.4 °F 22.2 °F 26.6 °F 93% 30.30 in 4.3 mi ESE 5.8 mph - N/A   Unknown
9:20 AM 30.2 °F 24.3 °F 26.6 °F 86% 30.30 in 4.3 mi ESE 5.8 mph - N/A   Unknown
9:50 AM 30.2 °F 25.4 °F 26.6 °F 86% 30.30 in 4.3 mi SE 4.6 mph - N/A   Unknown
10:00 AM 30 °F - 27 °F 84% 30.35 in 4 mi SE 4.5 mph - -   Clear
10:20 AM 32.0 °F 28.7 °F 28.4 °F 87% 30.30 in 3.7 mi ESE 3.5 mph 20.7 mph N/A   Unknown
10:50 AM 32.0 °F 28.7 °F 30.2 °F 93% 30.30 in 3.7 mi ESE 3.5 mph - N/A   Unknown
11:20 AM 35.6 °F 31.7 °F 30.2 °F 81% 30.30 in 4.3 mi ESE 4.6 mph - N/A   Unknown
11:50 AM 35.6 °F 30.7 °F 30.2 °F 81% 30.27 in - ESE 5.8 mph - N/A   Clear
12:20 PM 37.4 °F 32.8 °F 30.2 °F 75% 30.27 in - ESE 5.8 mph - N/A   Clear
12:50 PM 39.2 °F 34.2 °F 30.2 °F 70% 30.27 in - East 6.9 mph - N/A   Clear
1:00 PM 38 °F - 30 °F 64% 30.31 in 7 mi East 6.7 mph - -   Clear
1:20 PM 39.2 °F 32.5 °F 28.4 °F 65% 30.27 in - East 10.4 mph - N/A   Clear
1:50 PM 39.2 °F 32.5 °F 30.2 °F 70% 30.24 in 6.2 mi ENE 10.4 mph - N/A   Partly Cloudy
2:20 PM 39.2 °F 32.5 °F 32.0 °F 75% 30.24 in 6.2 mi NE 10.4 mph - N/A   Partly Cloudy
2:50 PM 39.2 °F 33.0 °F 32.0 °F 75% 30.24 in 6.2 mi NE 9.2 mph - N/A   Partly Cloudy
3:20 PM 39.2 °F 33.0 °F 30.2 °F 70% 30.24 in - NE 9.2 mph - N/A   Clear
3:50 PM 37.4 °F 30.3 °F 30.2 °F 75% 30.24 in - NE 10.4 mph - N/A   Clear
4:00 PM 38 °F - 30 °F 63% 30.28 in 12 mi NE 11.2 mph - -   Clear
4:20 PM 37.4 °F 30.8 °F 30.2 °F 75% 30.24 in - NE 9.2 mph - N/A   Clear
4:50 PM 35.6 °F 27.5 °F 30.2 °F 81% 30.24 in - NE 11.5 mph - N/A   Clear
5:20 PM 33.8 °F 26.4 °F 28.4 °F 81% 30.24 in - NE 9.2 mph - N/A   Clear
5:50 PM 33.8 °F 25.8 °F 28.4 °F 81% 30.24 in - NE 10.4 mph - N/A   Clear
6:20 PM 33.8 °F 25.3 °F 28.4 °F 81% 30.24 in - ENE 11.5 mph - N/A   Clear
6:50 PM 33.8 °F 27.0 °F 28.4 °F 81% 30.24 in - ENE 8.1 mph - N/A   Clear
7:00 PM 34 °F - 29 °F 75% 30.30 in 9 mi ENE 8.9 mph - -   Clear
7:20 PM 33.8 °F 27.7 °F 28.4 °F 81% 30.24 in - East 6.9 mph - N/A   Clear
7:50 PM 33.8 °F 29.6 °F 26.6 °F 75% 30.24 in - East 4.6 mph - N/A   Clear
8:20 PM 32.0 °F 27.5 °F 26.6 °F 80% 30.24 in - ENE 4.6 mph - N/A   Clear
8:50 PM 32.0 °F 28.7 °F 24.8 °F 75% 30.27 in - ENE 3.5 mph - N/A   Clear
9:20 PM 32.0 °F 26.4 °F 24.8 °F 75% 30.27 in - East 5.8 mph - N/A   Clear
9:50 PM 32.0 °F 24.8 °F 24.8 °F 75% 30.27 in - East 8.1 mph - N/A   Clear
10:00 PM 33 °F - 24 °F 59% 30.31 in 9 mi East 6.7 mph - -   Clear
10:20 PM 33.8 °F 27.7 °F 23.0 °F 65% 30.27 in - East 6.9 mph - N/A   Clear
10:50 PM 32.0 °F 26.4 °F 23.0 °F 69% 30.27 in - East 5.8 mph - N/A   Clear
11:20 PM 32.0 °F 26.4 °F 23.0 °F 69% 30.27 in - East 5.8 mph - N/A   Clear
11:50 PM 32.0 °F 26.4 °F 24.8 °F 75% 30.24 in - East 5.8 mph - N/A   Clear